When you browse on this site, cookies collect data to enhance your experience and personalize the content and advertising you see.
Visit our Privacy Policy to learn more. By continuing to use the site, you agree to this use of cookies and data.
  • In Hungary
  • List of Countries
  • For 7 days
  • Water Temperature
  • Satellite Maps
  • Weather Map
  • News
  • Weather Widgets
  • user-avatar
    Login

    Hourly Weather Gyor

    Today, 15 December, Saturday

    Time Temperature Precipitation Wind Pressure Humidity
    00:00 -2°C° 0.1 mm 3 mps 756 mmHg 78%
    01:00 -2°C° 0 mm 3 mps 756 mmHg 79%
    02:00 -2°C° 0.2 mm 3 mps 756 mmHg 81%
    03:00 -3°C° 0.2 mm 4 mps 756 mmHg 83%
    04:00 -3°C° 0.2 mm 4 mps 756 mmHg 85%
    05:00 -4°C° 0.2 mm 4 mps 756 mmHg 87%
    06:00 -4°C° 0.2 mm 4 mps 756 mmHg 88%
    07:00 -4°C° 0 mm 3 mps 756 mmHg 89%
    08:00 -4°C° 0.3 mm 4 mps 756 mmHg 89%
    09:00 -3°C° 0.3 mm 4 mps 756 mmHg 89%
    10:00 -4°C° 0.3 mm 5 mps 756 mmHg 89%
    11:00 -4°C° 0.3 mm 5 mps 756 mmHg 88%
    12:00 -2°C° 0.3 mm 5 mps 755 mmHg 88%
    13:00 -2°C° 0.3 mm 5 mps 755 mmHg 87%
    14:00 -2°C° 0.1 mm 4 mps 755 mmHg 88%
    15:00 -2°C° 0.1 mm 4 mps 755 mmHg 88%
    16:00 -3°C° 0.1 mm 4 mps 755 mmHg 88%
    17:00 -3°C° 0.1 mm 4 mps 755 mmHg 88%
    18:00 -3°C° 0.1 mm 4 mps 755 mmHg 88%
    19:00 -3°C° 0.1 mm 4 mps 755 mmHg 87%
    20:00 -4°C° 0 mm 4 mps 755 mmHg 87%
    21:00 -4°C° 0 mm 3 mps 755 mmHg 87%
    22:00 -4°C° 0 mm 3 mps 755 mmHg 87%
    23:00 -4°C° 0 mm 3 mps 755 mmHg 88%

    Tomorrow, 16 December, Sunday

    Time Temperature Precipitation Wind Pressure Humidity
    00:00 -5°C° 0 mm 3 mps 754 mmHg 88%
    01:00 -5°C° 0 mm 3 mps 754 mmHg 89%
    02:00 -5°C° 0 mm 3 mps 754 mmHg 89%
    03:00 -5°C° 0 mm 3 mps 754 mmHg 90%
    04:00 -6°C° 0 mm 3 mps 754 mmHg 90%
    05:00 -5°C° 0 mm 2 mps 754 mmHg 91%
    06:00 -5°C° 0 mm 2 mps 754 mmHg 91%
    07:00 -5°C° 0 mm 2 mps 754 mmHg 91%
    08:00 -5°C° 0 mm 2 mps 754 mmHg 88%
    09:00 -4°C° 0 mm 2 mps 754 mmHg 85%
    10:00 -3°C° 0 mm 2 mps 754 mmHg 83%
    11:00 -2°C° 0 mm 2 mps 754 mmHg 81%
    12:00 -2°C° 0 mm 2 mps 754 mmHg 79%
    13:00 -1°C° 0 mm 2 mps 754 mmHg 77%
    14:00 -2°C° 0 mm 2 mps 754 mmHg 80%
    15:00 -2°C° 0 mm 2 mps 754 mmHg 83%
    16:00 -3°C° 0 mm 2 mps 754 mmHg 86%
    17:00 -3°C° 0 mm 2 mps 754 mmHg 87%
    18:00 -4°C° 0 mm 2 mps 754 mmHg 88%
    19:00 -5°C° 0 mm 3 mps 755 mmHg 88%
    20:00 -5°C° 0 mm 3 mps 755 mmHg 88%
    21:00 -4°C° 0 mm 2 mps 755 mmHg 88%
    22:00 -4°C° 0 mm 2 mps 755 mmHg 88%
    23:00 -4°C° 0 mm 2 mps 755 mmHg 88%

    Day after tomorrow, 17 December, Monday

    Time Temperature Precipitation Wind Pressure Humidity
    00:00 -4°C° 0 mm 2 mps 755 mmHg 88%
    01:00 -4°C° 0 mm 2 mps 756 mmHg 88%
    02:00 -4°C° 0 mm 2 mps 756 mmHg 87%
    03:00 -4°C° 0 mm 2 mps 756 mmHg 86%
    04:00 -3°C° 0 mm 2 mps 756 mmHg 86%
    05:00 -1°C° 0 mm 1 mps 756 mmHg 86%
    06:00 -1°C° 0 mm 1 mps 756 mmHg 85%
    07:00 -1°C° 0 mm 1 mps 756 mmHg 85%
    08:00 -1°C° 0 mm 1 mps 756 mmHg 83%
    09:00 -1°C° 0 mm 1 mps 757 mmHg 81%
    10:00 -1°C° 0 mm 0 mps 757 mmHg 79%
    11:00 -1°C° 0 mm 0 mps 757 mmHg 78%
    12:00 0°C° 0 mm 0 mps 757 mmHg 76%
    13:00 0°C° 0 mm 0 mps 757 mmHg 75%
    14:00 0°C° 0 mm 0 mps 757 mmHg 78%
    15:00 0°C° 0 mm 1 mps 757 mmHg 82%
    16:00 0°C° 0 mm 1 mps 757 mmHg 85%
    17:00 -1°C° 0 mm 1 mps 758 mmHg 86%
    18:00 -1°C° 0 mm 1 mps 758 mmHg 86%
    19:00 -1°C° 0 mm 1 mps 759 mmHg 87%
    20:00 -3°C° 0 mm 2 mps 759 mmHg 87%
    21:00 -3°C° 0 mm 2 mps 759 mmHg 88%
    22:00 -3°C° 0 mm 2 mps 760 mmHg 88%
    23:00 -3°C° 0 mm 2 mps 760 mmHg 89%

    18 December, Tuesday

    Time Temperature Precipitation Wind Pressure Humidity
    00:00 -3°C° 0 mm 2 mps 760 mmHg 89%
    01:00 -3°C° 0 mm 2 mps 760 mmHg 90%
    02:00 -3°C° 0 mm 2 mps 760 mmHg 90%
    03:00 -3°C° 0 mm 2 mps 760 mmHg 90%
    04:00 -3°C° 0 mm 2 mps 760 mmHg 90%
    05:00 -3°C° 0 mm 2 mps 760 mmHg 90%
    06:00 -3°C° 0 mm 2 mps 760 mmHg 90%
    07:00 -3°C° 0 mm 2 mps 761 mmHg 90%
    08:00 -2°C° 0 mm 3 mps 761 mmHg 89%
    09:00 -1°C° 0 mm 3 mps 761 mmHg 87%
    10:00 0°C° 0 mm 3 mps 761 mmHg 86%
    11:00 +1°C° 0 mm 3 mps 761 mmHg 85%
    12:00 +2°C° 0 mm 3 mps 761 mmHg 85%
    13:00 +1°C° 0 mm 4 mps 760 mmHg 85%
    14:00 +1°C° 0 mm 3 mps 760 mmHg 87%
    15:00 0°C° 0 mm 3 mps 760 mmHg 89%
    16:00 -1°C° 0 mm 2 mps 760 mmHg 92%
    17:00 -1°C° 0 mm 2 mps 760 mmHg 92%
    18:00 -1°C° 0 mm 2 mps 760 mmHg 92%
    19:00 0°C° 0 mm 1 mps 760 mmHg 92%
    20:00 0°C° 0 mm 1 mps 760 mmHg 92%
    21:00 0°C° 0 mm 1 mps 760 mmHg 92%
    22:00 0°C° 0 mm 1 mps 760 mmHg 92%
    23:00 -1°C° 0 mm 1 mps 760 mmHg 93%

    19 December, Wednesday

    Time Temperature Precipitation Wind Pressure Humidity
    00:00 -2°C° 0 mm 0 mps 760 mmHg 93%
    01:00 -2°C° 0 mm 0 mps 759 mmHg 93%
    02:00 -2°C° 0 mm 0 mps 759 mmHg 93%
    03:00 -2°C° 0 mm 0 mps 759 mmHg 93%
    04:00 -2°C° 0 mm 0 mps 759 mmHg 93%
    05:00 -1°C° 0 mm 1 mps 759 mmHg 93%
    06:00 -1°C° 0 mm 1 mps 759 mmHg 93%
    07:00 -1°C° 0 mm 1 mps 759 mmHg 93%
    08:00 -1°C° 0 mm 1 mps 759 mmHg 91%
    09:00 0°C° 0 mm 1 mps 759 mmHg 89%
    10:00 +1°C° 0 mm 1 mps 760 mmHg 87%
    11:00 +1°C° 0 mm 1 mps 759 mmHg 86%
    12:00 +2°C° 0 mm 1 mps 759 mmHg 84%
    13:00 +2°C° 0 mm 1 mps 759 mmHg 83%
    14:00 +2°C° 0 mm 1 mps 759 mmHg 85%
    15:00 +1°C° 0 mm 1 mps 759 mmHg 88%
    16:00 -2°C° 0 mm 2 mps 759 mmHg 90%
    17:00 -2°C° 0 mm 2 mps 759 mmHg 91%
    18:00 -2°C° 0 mm 2 mps 759 mmHg 92%
    19:00 -3°C° 0 mm 2 mps 759 mmHg 92%
    20:00 -3°C° 0 mm 2 mps 759 mmHg 92%
    21:00 -3°C° 0 mm 2 mps 759 mmHg 92%
    22:00 -3°C° 0 mm 2 mps 759 mmHg 93%
    23:00 -3°C° 0 mm 2 mps 759 mmHg 93%

    20 December, Thursday

    Time Temperature Precipitation Wind Pressure Humidity
    00:00 -4°C° 0 mm 2 mps 759 mmHg 93%
    01:00 -5°C° 0 mm 3 mps 759 mmHg 93%
    02:00 -5°C° 0 mm 3 mps 759 mmHg 93%
    03:00 -5°C° 0 mm 3 mps 759 mmHg 92%
    04:00 -5°C° 0 mm 3 mps 759 mmHg 92%
    05:00 -5°C° 0 mm 3 mps 759 mmHg 90%
    06:00 -4°C° 0 mm 3 mps 759 mmHg 89%
    07:00 -4°C° 0 mm 3 mps 759 mmHg 88%
    08:00 -4°C° 0 mm 3 mps 760 mmHg 86%
    09:00 -2°C° 0 mm 3 mps 760 mmHg 84%
    10:00 -2°C° 0 mm 3 mps 760 mmHg 82%
    11:00 -2°C° 0 mm 3 mps 760 mmHg 81%
    12:00 -1°C° 0 mm 3 mps 760 mmHg 79%
    13:00 -1°C° 0 mm 3 mps 760 mmHg 78%
    14:00 -1°C° 0 mm 3 mps 760 mmHg 80%
    15:00 -2°C° 0 mm 3 mps 760 mmHg 82%
    16:00 -2°C° 0 mm 3 mps 760 mmHg 83%
    17:00 -2°C° 0 mm 3 mps 760 mmHg 85%
    18:00 -3°C° 0 mm 2 mps 760 mmHg 87%
    19:00 -3°C° 0 mm 2 mps 760 mmHg 89%
    20:00 -3°C° 0 mm 2 mps 760 mmHg 89%
    21:00 -3°C° 0 mm 2 mps 760 mmHg 90%
    22:00 -3°C° 0 mm 2 mps 761 mmHg 90%
    23:00 -3°C° 0 mm 2 mps 761 mmHg 91%
    Show more